Location: Bettgenhausen
(50.6463°N, 7.5681°E)
Time: 18:39:02
(UTC+00:00)

Cosmos 1933 Rocket - Pass Details

Date: 27 February 2020
Orbit: 606 x 631 km, 82.5° (Epoch: 29 March)

Event Time Altitude Azimuth Distance (km) Brightness Sun altitude
Rises 17:55:39 0° 180° (S) 2,889 7.0 -8.5°
Reaches altitude 10° 17:57:53 10° 177° (S) 1,984 6.2 -8.9°
Maximum altitude 18:02:13 65° 97° (E) 683 3.5 -9.6°
Drops below altitude 10° 18:06:35 10° 15° (NNE) 1,985 6.0 -10.2°
Sets 18:08:49 0° 13° (NNE) 2,891 6.9 -10.6°
